FW6618 Weather Reports


Display with metric or nautical units.
time (UTC)temp
F
wind
direction
speed
MPH
gust
MPH
rain 1hr
in
rain 24hr
in
rain mn
in
humidity
%
barometer
mb
20260904164541 76 321 2.0 6.0 0.00 0.00 0.00 70 1013.3
20260904164023 75 161 1.0 5.0 0.00 0.00 0.00 70 1013.2
20260904163523 74 89 0.0 4.0 0.00 0.00 0.00 73 1013.4
20260904163043 74 220 2.0 6.0 0.00 0.00 0.00 70 1013.4
20260904162520 75 168 2.0 7.0 0.00 0.00 0.00 68 1013.5
20260904162021 76 155 1.0 7.0 0.00 0.00 0.00 71 1013.4
20260904161552 76 286 2.0 7.0 0.00 0.00 0.00 72 1013.7
20260904161023 76 131 1.0 5.0 0.00 0.00 0.00 71 1013.6
20260904160519 75 155 1.0 6.0 0.00 0.00 0.00 71 1013.7
20260904160042 75 79 2.0 6.0 0.00 0.00 0.00 70 1013.6
20260904155522 75 221 1.0 6.0 0.00 0.00 0.00 70 1013.6
20260904155028 75 311 1.0 4.0 0.00 0.00 0.00 72 1013.7
20260904154543 74 28 2.0 7.0 0.00 0.00 0.00 71 1013.8
20260904154028 74 139 1.0 9.0 0.00 0.00 0.00 73 1013.8
20260904153527 74 283 1.0 9.0 0.00 0.00 0.00 73 1013.9
20260904153053 73 311 2.0 5.0 0.00 0.00 0.00 74 1013.9
20260904152521 73 191 2.0 8.0 0.00 0.00 0.00 74 1013.9
20260904152021 73 219 3.0 8.0 0.00 0.00 0.00 73 1013.9
20260904151544 73 321 2.0 7.0 0.00 0.00 0.00 75 1014.0
20260904151024 73 339 3.0 7.0 0.00 0.00 0.00 76 1013.9
20260904150518 73 313 1.0 4.0 0.00 0.00 0.00 79 1013.9
20260904150041 72 282 1.0 6.0 0.00 0.00 0.00 77 1013.9
20260904145525 72 64 1.0 6.0 0.00 0.00 0.00 79 1014.0
20260904145029 72 360 1.0 6.0 0.00 0.00 0.00 77 1014.0
20260904144544 72 15 2.0 4.0 0.00 0.00 0.00 79 1013.8
20260904144027 71 269 2.0 4.0 0.00 0.00 0.00 80 1013.7
20260904143525 71 229 1.0 5.0 0.00 0.00 0.00 82 1013.7
20260904143044 71 283 2.0 5.0 0.00 0.00 0.00 79 1013.7
20260904142523 71 273 1.0 4.0 0.00 0.00 0.00 81 1013.8
20260904142020 71 291 0.0 5.0 0.00 0.00 0.00 82 1013.8
20260904141542 71 271 2.0 5.0 0.00 0.00 0.00 80 1013.9
20260904141019 71 250 1.0 5.0 0.00 0.00 0.00 80 1013.9
20260904140518 70 0 1.0 5.0 0.00 0.00 0.00 82 1013.8
20260904140045 70 265 2.0 5.0 0.00 0.00 0.00 83 1013.8
20260904135531 70 248 1.0 3.0 0.00 0.00 0.00 85 1013.6
20260904135026 69 229 1.0 3.0 0.00 0.00 0.00 88 1013.9
20260904134550 69 191 0.0 3.0 0.00 0.00 0.00 88 1013.7
20260904134024 68 16 1.0 3.0 0.00 0.00 0.00 89 1013.8
20260904133521 68 303 0.0 3.0 0.00 0.00 0.00 91 1013.7
20260904133056 67 0 1.0 3.0 0.00 0.00 0.00 93 1013.7
20260904132521 67 141 0.0 2.0 0.00 0.00 0.00 97 1013.8
20260904132019 66 169 0.0 2.0 0.00 0.00 0.00 97 1013.7
20260904131537 65 115 1.0 2.0 0.00 0.00 0.00 98 1013.7
20260904131024 64 217 1.0 3.0 0.00 0.00 0.00 98 1013.8
20260904130525 64 0 0.0 3.0 0.00 0.00 0.00 98 1013.9
20260904130044 63 192 1.0 3.0 0.00 0.00 0.00 98 1013.9
20260904125524 62 197 0.0 4.0 0.00 0.00 0.00 98 1013.9
20260904125022 62 257 1.0 4.0 0.00 0.00 0.00 98 1014.1
20260904124542 61 195 2.0 4.0 0.00 0.00 0.00 98 1014.1
20260904124021 61 333 1.0 4.0 0.00 0.00 0.00 98 1014.0
20260904123525 61 296 1.0 4.0 0.00 0.00 0.00 98 1014.1
20260904123041 61 183 1.0 3.0 0.00 0.00 0.00 98 1014.1
20260904122526 60 0 1.0 3.0 0.00 0.00 0.00 98 1014.0
20260904122018 60 277 0.0 2.0 0.00 0.00 0.00 98 1014.2
20260904121540 60 139 0.0 2.0 0.00 0.00 0.00 98 1014.1
20260904121025 59 0 0.0 0.0 0.00 0.00 0.00 98 1014.1
20260904120523 59 0 0.0 0.0 0.00 0.00 0.00 98 1014.1
20260904120053 59 0 0.0 0.0 0.00 0.00 0.00 98 1013.9
20260904115521 59 0 0.0 0.0 0.00 0.00 0.00 98 1013.8
20260904115024 58 0 0.0 0.0 0.00 0.00 0.00 98 1013.8
20260904114546 58 0 0.0 0.0 0.00 0.00 0.00 98 1013.8
20260904114026 58 0 0.0 0.0 0.00 0.00 0.00 98 1013.9
20260904113522 58 0 0.0 0.0 0.00 0.00 0.00 98 1013.9
20260904113040 58 0 0.0 0.0 0.00 0.00 0.00 98 1013.8
20260904112520 58 0 0.0 0.0 0.00 0.00 0.00 98 1013.7
20260904112019 58 0 0.0 0.0 0.00 0.00 0.00 98 1013.6
20260904111539 58 0 0.0 0.0 0.00 0.00 0.00 98 1013.6
20260904111018 57 0 0.0 0.0 0.00 0.00 0.00 98 1013.7
20260904110522 57 0 0.0 0.0 0.00 0.00 0.00 98 1013.8
20260904110043 57 0 0.0 0.0 0.00 0.00 0.00 98 1013.7
20260904105521 57 0 0.0 0.0 0.00 0.01 0.00 98 1013.7
20260904105024 57 0 0.0 0.0 0.00 0.01 0.00 98 1013.5
20260904104604 57 0 0.0 0.0 0.00 0.01 0.00 98 1013.5
20260904104028 57 0 0.0 0.0 0.00 0.01 0.00 98 1013.6
20260904103521 57 0 0.0 0.0 0.00 0.01 0.00 98 1013.4
20260904103040 57 0 0.0 0.0 0.00 0.01 0.00 98 1013.4
20260904102524 57 0 0.0 0.0 0.00 0.01 0.00 98 1013.3
20260904102025 57 0 0.0 0.0 0.00 0.01 0.00 98 1013.4
20260904101543 57 0 0.0 0.0 0.00 0.01 0.00 98 1013.4
20260904101017 57 0 0.0 0.0 0.00 0.01 0.00 98 1013.3
20260904100521 57 0 0.0 0.0 0.00 0.01 0.00 98 1013.3
20260904100056 57 0 0.0 0.0 0.00 0.01 0.00 98 1013.3
20260904095523 57 0 0.0 0.0 0.00 0.01 0.00 98 1013.2
20260904095021 57 0 0.0 0.0 0.00 0.01 0.00 98 1013.1
20260904094551 57 0 0.0 0.0 0.00 0.01 0.00 98 1013.1
20260904094020 57 0 0.0 0.0 0.00 0.01 0.00 98 1013.1
20260904093524 57 0 0.0 0.0 0.00 0.01 0.00 98 1013.1
20260904093039 57 0 0.0 0.0 0.00 0.01 0.00 98 1013.1
20260904092521 57 0 0.0 0.0 0.00 0.01 0.00 98 1013.1
20260904092019 57 0 0.0 0.0 0.00 0.01 0.00 98 1013.0
20260904091540 58 0 0.0 0.0 0.00 0.01 0.00 98 1013.0
20260904091021 58 0 0.0 0.0 0.00 0.01 0.00 98 1013.1
20260904090528 58 0 0.0 0.0 0.00 0.01 0.00 98 1013.1
20260904090041 58 0 0.0 0.0 0.00 0.01 0.00 98 1013.0
20260904085521 58 0 0.0 0.0 0.00 0.01 0.00 98 1013.1
20260904085027 58 0 0.0 0.0 0.00 0.01 0.00 98 1013.0
20260904084541 58 0 0.0 0.0 0.00 0.01 0.00 98 1012.9
20260904084019 58 0 0.0 0.0 0.00 0.01 0.00 98 1012.9
20260904083519 58 0 0.0 0.0 0.00 0.01 0.00 98 1013.0
20260904083047 58 0 0.0 0.0 0.00 0.01 0.00 98 1013.0
20260904082527 59 0 0.0 0.0 0.00 0.01 0.00 98 1012.9
20260904082022 59 0 0.0 0.0 0.00 0.01 0.00 98 1012.9
20260904081543 59 0 0.0 0.0 0.00 0.01 0.00 98 1013.0
20260904081023 59 0 0.0 0.0 0.00 0.01 0.00 98 1012.9
20260904080519 59 0 0.0 0.0 0.00 0.01 0.00 98 1013.0
20260904080043 59 0 0.0 0.0 0.00 0.01 0.00 98 1013.0
20260904075518 59 0 0.0 0.0 0.00 0.01 0.00 98 1012.9
20260904075023 59 0 0.0 0.0 0.00 0.01 0.00 98 1012.9
20260904074540 59 0 0.0 0.0 0.00 0.01 0.00 98 1013.0
20260904074023 59 0 0.0 0.0 0.00 0.01 0.00 98 1013.0
20260904073517 59 0 0.0 0.0 0.00 0.01 0.00 98 1012.8
20260904073038 59 0 0.0 0.0 0.00 0.01 0.00 98 1013.0
20260904072524 59 0 0.0 0.0 0.00 0.01 0.00 98 1013.0
20260904072019 59 0 0.0 0.0 0.00 0.01 0.00 98 1013.1
20260904071545 59 0 0.0 0.0 0.00 0.01 0.00 98 1013.3
20260904071021 59 0 0.0 0.0 0.00 0.01 0.00 98 1013.2
20260904070521 59 0 0.0 0.0 0.00 0.01 0.00 98 1013.4
20260904070044 59 0 0.0 0.0 0.00 0.01 0.00 98 1013.4
20260904065528 59 0 0.0 0.0 0.00 0.01 0.00 98 1013.3
20260904065019 59 0 0.0 0.0 0.00 0.01 0.00 98 1013.4
20260904064541 59 0 0.0 0.0 0.00 0.01 0.00 98 1013.4
20260904064022 59 0 0.0 0.0 0.00 0.01 0.00 98 1013.3
20260904063519 59 0 0.0 0.0 0.00 0.01 0.00 98 1013.4
20260904063047 59 0 0.0 0.0 0.00 0.01 0.00 98 1013.3
20260904062526 59 0 0.0 0.0 0.00 0.01 0.00 98 1013.3
20260904062023 59 0 0.0 0.0 0.00 0.01 0.00 98 1013.3
20260904061540 59 0 0.0 0.0 0.00 0.01 0.00 98 1013.3
20260904061022 59 0 0.0 0.0 0.00 0.01 0.00 98 1013.3
20260904060522 59 0 0.0 0.0 0.00 0.01 0.00 98 1013.4
20260904060109 59 0 0.0 0.0 0.00 0.01 0.00 98 1013.3
20260904055519 59 0 0.0 0.0 0.00 0.01 0.00 98 1013.4
20260904055024 59 0 0.0 0.0 0.00 0.01 0.00 98 1013.5
20260904054540 59 0 0.0 0.0 0.00 0.01 0.00 98 1013.6
20260904054018 59 0 0.0 0.0 0.00 0.01 0.00 98 1013.5
20260904053522 59 0 0.0 0.0 0.00 0.01 0.00 98 1013.6
20260904053126 59 0 0.0 0.0 0.00 0.01 0.00 98 1013.7
20260904052519 59 0 0.0 0.0 0.00 0.01 0.00 98 1013.9
20260904052021 60 0 0.0 0.0 0.00 0.01 0.00 98 1014.1
20260904051602 60 0 0.0 0.0 0.00 0.01 0.00 98 1014.0
20260904051024 60 0 0.0 0.0 0.00 0.01 0.00 98 1014.0
20260904050521 60 0 0.0 0.0 0.00 0.01 0.00 98 1014.0
20260904050041 60 0 0.0 0.0 0.00 0.01 0.00 98 1014.1
20260904045519 60 0 0.0 0.0 0.00 0.01 0.00 98 1014.1
20260904045019 60 0 0.0 0.0 0.00 0.01 0.00 98 1014.1
20260904044619 60 0 0.0 0.0 0.00 0.01 0.00 98 1014.1
20260904044020 60 0 0.0 0.0 0.00 0.01 0.00 98 1014.2
20260904043519 60 0 0.0 0.0 0.00 0.01 0.00 98 1014.2
20260904043043 60 0 0.0 1.0 0.00 0.01 0.00 98 1014.2
20260904042523 61 0 0.0 1.0 0.00 0.01 0.00 98 1014.2
20260904042025 61 0 0.0 1.0 0.00 0.01 0.00 97 1014.1
20260904041543 61 0 0.0 1.0 0.00 0.01 0.00 98 1014.1
20260904041024 61 102 0.0 1.0 0.00 0.01 0.00 97 1014.2
20260904040524 61 0 0.0 1.0 0.00 0.01 0.00 97 1014.1
20260904040050 61 0 0.0 1.0 0.00 0.01 0.00 97 1014.1
20260904035525 61 0 0.0 1.0 0.00 0.01 0.01 97 1014.3
20260904035026 61 0 0.0 1.0 0.00 0.01 0.01 97 1014.2
20260904034541 61 0 0.0 1.0 0.00 0.01 0.01 97 1014.2
20260904034019 62 0 0.0 2.0 0.00 0.01 0.01 97 1014.2
20260904033525 62 0 0.0 2.0 0.00 0.01 0.01 97 1014.2
20260904033057 62 0 0.0 2.0 0.00 0.01 0.01 97 1014.2
20260904032520 62 0 0.0 2.0 0.00 0.01 0.01 97 1014.1
20260904032023 62 124 0.0 2.0 0.00 0.01 0.01 97 1014.3
20260904031544 62 49 0.0 2.0 0.00 0.01 0.01 97 1014.3
20260904031023 62 326 0.0 2.0 0.00 0.01 0.01 97 1014.4
20260904030524 62 0 0.0 2.0 0.00 0.01 0.01 97 1014.5
20260904030042 63 0 0.0 2.0 0.00 0.01 0.01 97 1014.6
20260904025524 63 80 0.0 2.0 0.00 0.01 0.01 97 1014.4
20260904025024 63 0 0.0 2.0 0.00 0.01 0.01 97 1014.5
20260904024543 63 0 0.0 1.0 0.00 0.01 0.01 97 1014.4
20260904024024 63 0 0.0 1.0 0.00 0.01 0.01 97 1014.6
20260904023524 63 321 0.0 1.0 0.00 0.01 0.01 97 1014.8
20260904023054 63 0 0.0 1.0 0.00 0.01 0.01 97 1014.7
20260904022524 63 0 0.0 1.0 0.00 0.01 0.01 97 1014.6
20260904022025 64 0 0.0 0.0 0.00 0.01 0.01 97 1014.6
20260904021543 64 0 0.0 0.0 0.00 0.01 0.01 97 1014.6
20260904021022 64 0 0.0 0.0 0.00 0.01 0.01 97 1014.7
20260904020523 64 0 0.0 0.0 0.00 0.01 0.01 97 1014.8
20260904020047 64 0 0.0 0.0 0.00 0.01 0.01 97 1014.7
20260904015521 64 0 0.0 0.0 0.00 0.01 0.01 96 1014.6
20260904015022 65 0 0.0 0.0 0.00 0.01 0.01 96 1014.6
20260904014542 65 0 0.0 0.0 0.00 0.01 0.01 96 1014.6
20260904014024 65 0 0.0 0.0 0.00 0.01 0.01 96 1014.6
20260904013523 65 0 0.0 1.0 0.00 0.01 0.01 96 1014.9
20260904013044 65 0 0.0 1.0 0.00 0.01 0.01 96 1014.6
20260904012525 65 0 0.0 1.0 0.00 0.01 0.01 96 1014.6
20260904012025 65 322 0.0 2.0 0.00 0.01 0.01 96 1014.6
20260904011543 66 0 0.0 2.0 0.00 0.01 0.01 96 1014.7
20260904011023 66 348 0.0 2.0 0.00 0.01 0.01 96 1014.6
20260904010527 66 342 1.0 2.0 0.00 0.01 0.01 96 1014.6
20260904010039 66 345 0.0 2.0 0.00 0.01 0.01 95 1014.6
20260904005521 66 56 1.0 2.0 0.00 0.01 0.01 95 1014.6
20260904005020 67 94 0.0 2.0 0.00 0.01 0.01 95 1014.5
20260904004543 67 0 0.0 3.0 0.00 0.01 0.01 95 1014.6
20260904004023 67 162 1.0 3.0 0.00 0.01 0.01 95 1014.5
20260904003526 67 356 1.0 2.0 0.00 0.01 0.01 95 1014.5
20260904003041 67 302 0.0 4.0 0.00 0.01 0.01 94 1014.5
20260904002524 67 320 1.0 4.0 0.00 0.01 0.01 94 1014.4
20260904002026 68 173 0.0 2.0 0.00 0.01 0.01 93 1014.1
20260904001541 68 173 0.0 3.0 0.00 0.01 0.01 93 1014.1
20260904001023 69 264 0.0 3.0 0.00 0.01 0.01 93 1014.0
20260904000521 69 234 1.0 3.0 0.00 0.01 0.01 92 1013.9
20260904000108 69 61 0.0 2.0 0.00 0.01 0.01 93 1013.9
20260903235523 69 285 1.0 2.0 0.00 0.01 0.01 93 1013.9
20260903235021 69 211 0.0 2.0 0.00 0.01 0.01 92 1013.7
20260903234541 69 246 1.0 5.0 0.00 0.01 0.01 92 1013.7
20260903234023 69 320 0.0 5.0 0.00 0.01 0.01 94 1013.7
20260903233529 69 330 1.0 5.0 0.00 0.01 0.01 92 1013.5
20260903233100 69 0 0.0 2.0 0.00 0.01 0.01 94 1013.4
20260903232524 69 97 0.0 2.0 0.00 0.01 0.01 95 1013.5
20260903232023 69 0 0.0 1.0 0.00 0.01 0.01 95 1013.5
20260903231546 69 0 0.0 1.0 0.00 0.01 0.01 95 1013.7
20260903231023 69 246 0.0 3.0 0.00 0.01 0.01 95 1013.7
20260903230523 70 0 0.0 3.0 0.00 0.01 0.01 95 1013.6
20260903230103 70 243 1.0 3.0 0.00 0.01 0.01 94 1013.6
20260903225523 70 82 0.0 2.0 0.00 0.01 0.01 94 1013.7
20260903225024 70 136 0.0 2.0 0.00 0.01 0.01 95 1013.6
20260903224543 70 0 0.0 2.0 0.00 0.01 0.01 95 1013.8
20260903224024 70 244 0.0 2.0 0.00 0.01 0.01 94 1013.8
20260903223531 71 281 0.0 2.0 0.00 0.01 0.01 94 1013.6
20260903223108 71 281 0.0 2.0 0.00 0.01 0.01 94 1013.7
20260903222521 71 281 1.0 2.0 0.00 0.01 0.01 93 1013.7
20260903222023 71 0 0.0 1.0 0.00 0.01 0.01 93 1013.6
20260903221542 72 0 0.0 1.0 0.00 0.01 0.01 92 1013.5
20260903221018 72 0 0.0 1.0 0.00 0.01 0.01 92 1013.7
20260903220524 72 8 0.0 1.0 0.00 0.01 0.01 92 1013.5
20260903220045 72 0 0.0 1.0 0.00 0.01 0.01 91 1013.6
20260903215524 73 8 0.0 1.0 0.00 0.01 0.01 90 1013.7
20260903215022 74 8 0.0 2.0 0.00 0.01 0.01 88 1013.7
20260903214550 74 10 0.0 2.0 0.00 0.01 0.01 87 1013.6
20260903214021 75 11 1.0 3.0 0.00 0.01 0.01 85 1013.7
20260903213521 76 229 1.0 4.0 0.00 0.01 0.01 82 1013.4
20260903213053 76 207 1.0 4.0 0.00 0.01 0.01 81 1013.7
20260903212522 76 49 0.0 2.0 0.00 0.01 0.01 83 1014.0
20260903212020 76 186 1.0 8.0 0.00 0.01 0.01 81 1014.2
20260903211544 76 79 2.0 8.0 0.00 0.01 0.01 80 1014.2
20260903211025 76 302 2.0 7.0 0.00 0.01 0.01 81 1014.0
20260903210522 76 121 1.0 6.0 0.00 0.01 0.01 81 1014.0
20260903210109 76 210 1.0 10.0 0.00 0.01 0.01 81 1013.9
20260903205525 76 221 2.0 10.0 0.00 0.01 0.01 81 1013.8
20260903205019 77 205 1.0 5.0 0.00 0.01 0.01 81 1013.8
20260903204545 77 197 1.0 6.0 0.00 0.01 0.01 81 1013.9
20260903204021 77 238 2.0 6.0 0.00 0.01 0.01 80 1013.8
20260903203520 78 169 1.0 6.0 0.00 0.01 0.01 82 1013.8
20260903203042 78 206 1.0 4.0 0.00 0.01 0.01 81 1013.7
20260903202526 78 217 1.0 3.0 0.00 0.01 0.01 81 1013.6
20260903202024 78 128 1.0 3.0 0.00 0.01 0.01 82 1013.7
20260903201542 78 238 1.0 6.0 0.00 0.01 0.01 83 1013.7
20260903201024 79 288 2.0 6.0 0.00 0.01 0.01 81 1013.6
20260903200521 79 226 1.0 4.0 0.00 0.01 0.01 78 1013.6
20260903200043 79 54 1.0 4.0 0.00 0.01 0.01 81 1013.7
20260903195519 79 143 2.0 4.0 0.00 0.01 0.01 77 1013.8
20260903195023 79 202 1.0 4.0 0.00 0.01 0.01 79 1013.8
20260903194547 79 230 1.0 6.0 0.00 0.01 0.01 80 1013.9
20260903194021 78 250 2.0 6.0 0.00 0.01 0.01 78 1013.9
20260903193531 78 175 2.0 6.0 0.00 0.01 0.01 81 1013.8
20260903193044 77 222 2.0 4.0 0.00 0.01 0.01 81 1013.9
20260903192524 77 189 2.0 4.0 0.00 0.01 0.01 82 1014.1
20260903192023 77 56 1.0 7.0 0.00 0.01 0.01 83 1014.2
20260903191545 77 252 2.0 7.0 0.00 0.01 0.01 80 1014.2
20260903191027 76 167 2.0 7.0 0.00 0.01 0.01 82 1014.2
20260903190524 77 213 2.0 5.0 0.00 0.01 0.01 83 1014.3
20260903190046 77 120 2.0 6.0 0.00 0.01 0.01 82 1014.3
20260903185521 76 229 1.0 6.0 0.00 0.01 0.01 84 1014.3
20260903185030 76 165 1.0 6.0 0.00 0.01 0.01 85 1014.4
20260903184550 75 0 1.0 4.0 0.00 0.01 0.01 86 1014.4
20260903184024 75 173 0.0 6.0 0.00 0.01 0.01 85 1014.4
20260903183519 75 129 1.0 6.0 0.00 0.01 0.01 86 1014.6
20260903183042 75 284 1.0 6.0 0.00 0.01 0.01 84 1014.6
20260903182527 74 0 0.0 3.0 0.00 0.01 0.01 88 1014.6
20260903182021 74 0 0.0 3.0 0.00 0.01 0.01 88 1014.7
20260903181544 74 131 1.0 4.0 0.00 0.01 0.01 86 1014.7
20260903181026 74 114 0.0 4.0 0.00 0.01 0.01 89 1014.9
20260903180522 74 172 1.0 4.0 0.00 0.01 0.01 86 1014.8
20260903180045 74 0 0.0 3.0 0.00 0.01 0.01 87 1014.9
20260903175520 74 94 0.0 3.0 0.00 0.01 0.01 85 1014.7
20260903175019 74 245 0.0 4.0 0.00 0.01 0.01 85 1014.8
20260903174547 75 116 1.0 4.0 0.00 0.01 0.01 85 1014.8
20260903174023 75 236 1.0 4.0 0.00 0.01 0.01 85 1014.7
20260903173525 74 41 1.0 4.0 0.00 0.01 0.01 86 1014.8
20260903173045 74 148 0.0 6.0 0.00 0.01 0.01 86 1014.9
20260903172525 75 146 0.0 6.0 0.00 0.01 0.01 85 1015.0
20260903172026 75 181 2.0 8.0 0.00 0.01 0.01 84 1015.1
20260903171544 75 172 1.0 8.0 0.00 0.01 0.01 84 1015.1
20260903171020 75 147 2.0 8.0 0.00 0.01 0.01 84 1015.0
20260903170521 74 187 2.0 4.0 0.00 0.01 0.01 86 1015.1
20260903170043 74 190 1.0 3.0 0.00 0.01 0.01 87 1015.3
20260903165525 73 65 1.0 3.0 0.00 0.01 0.01 88 1015.3
20260903165025 73 158 1.0 2.0 0.00 0.01 0.01 88 1015.5